Location: Fritzens
(47.3000°N, 11.5833°E)
Time: 00:15:52
(UTC+00:00)

Daily predictions for brighter satellites

Satellite Brightness Start Highest point End
(mag) Time Altitude Azimuth Time Altitude Azimuth Time Altitude Azimuth
CENTAUR R/B 4.3 02:28:55 26° E 02:28:55 26° E 02:33:21 10° NE
Cosmos 2344 3.8 02:53:31 60° ESE 02:53:31 60° ESE 03:00:35 10° NE
USA 238 DEB 4.3 03:12:40 44° SE 03:13:40 47° ESE 03:20:07 10° NE
USA 238 4.4 03:12:43 43° SE 03:13:46 47° ESE 03:20:13 10° NE
BREEZE-M DEB (TANK) 4.3 03:15:56 40° ESE 03:15:56 40° ESE 03:21:58 10° ESE
USA 215 3.5 03:18:55 10° ESE 03:25:17 59° NNE 03:25:43 58° N
Cosmos 2369 Rocket 3.8 03:33:11 10° SSE 03:38:03 32° ESE 03:42:56 10° NE
NOSS 3-3 (A) 4.4 03:44:28 64° WNW 03:45:46 78° SW 03:54:14 10° SSE
NOSS 3-3 (C) 4.4 03:44:32 64° WNW 03:45:52 78° SW 03:54:20 10° SSE
COSMO-SKYMED 1 3.9 03:43:35 10° SE 03:47:36 38° ENE 03:48:35 33° NE
Cosmos 1867 4.1 03:50:15 50° S 03:50:15 50° S 03:54:17 10° SSE
MOS 1-B Rocket 4.1 03:44:29 10° SSE 03:50:46 70° ENE 03:54:14 25° N
Cosmos 2208 Rocket 4.2 03:52:17 67° SSE 03:52:17 67° SSE 03:56:55 10° SSE
Tsikada Rocket 4.0 03:46:27 10° S 03:52:37 79° E 03:58:55 10° N
H-2A R/B 4.3 03:49:41 10° NNE 03:53:06 34° E 03:56:32 10° SSE
Gblst 52 Del rocket 4.2 03:54:35 77° WSW 03:55:05 89° NW 04:01:50 10° ENE
Cosmos 1943 Rocket 2.0 04:06:38 69° WSW 04:07:11 75° WNW 04:12:53 10° NNE
CZ-2C R/B 2.9 04:03:18 10° SSE 04:08:44 68° ENE 04:13:24 14° N
SL-19 R/B 4.1 04:05:23 10° SSE 04:10:59 83° WSW 04:13:20 37° NNW
Cosmos 1241 Rocket 4.4 04:10:33 58° W 04:11:17 63° WSW 04:17:22 10° SSE
SL-8 R/B 3.5 04:16:23 78° NW 04:16:41 85° N 04:21:30 10° E
CENTAUR R/B 2.5 04:16:08 49° WSW 04:17:47 67° NW 04:25:01 10° NE
Cosmos 2297 3.7 04:21:07 51° W 04:22:09 59° WNW 04:27:50 10° NNE
Iridium 2 3.8 04:23:09 10° S 04:26:56 73° E 04:30:43 10° N
NOSS 3-2 (A) 3.6 04:27:50 44° WNW 04:28:55 49° NW 04:35:23 10° NE
Cosmos 2278 Rocket 4.0 04:33:50 16° NNW 04:33:50 16° NNW 04:35:54 10° N
Envisat 2.9 04:30:15 10° NNE 04:35:22 84° WNW 04:40:27 10° SSW
SKYMED 2 3.4 04:31:15 10° S 04:35:34 71° WSW 04:37:12 37° NNW
Meteor 2-6 Rocket 4.2 04:30:49 10° N 04:36:16 79° ENE 04:41:39 10° SSE
NOSS 3-2 (C) 3.3 04:33:36 32° WSW 04:36:18 67° NW 04:42:52 10° NE
Cosmos 2098 Rocket 2.9 04:38:03 10° S 04:41:54 83° W 04:46:50 10° N
Meteor 2-3 Rocket 3.9 04:37:19 10° SW 04:42:44 45° WNW 04:48:14 10° N
SL-27 R/B 4.4 04:40:34 12° N 04:43:21 28° ENE 04:46:27 10° ESE
Landsat 5 3.5 04:40:42 10° S 04:45:12 74° WSW 04:48:26 19° NNW
Cosmos 968 Rocket 3.5 04:42:38 19° SW 04:46:11 52° WNW 04:51:13 10° NNE
Meteor 2-13 Rocket 4.4 04:41:02 10° SSW 04:47:05 63° WNW 04:53:09 10° N
CZ-4B R/B 4.0 04:43:26 10° N 04:47:53 76° WNW 04:52:21 10° SSW
Genesis I 4.2 04:49:24 31° SW 04:49:24 31° SW 04:52:44 10° S
FALCON 9 DEB 3.9 04:49:58 32° NNE 04:49:58 32° NNE 04:52:06 10° NE
Cosmos 921 Rocket 3.4 04:50:35 39° W 04:51:14 41° WSW 04:55:25 10° S
Meteor 1-10 Rocket 4.3 04:46:40 10° N 04:52:16 78° ENE 04:57:48 10° SSE
Okean 3 Rocket 3.5 04:49:01 10° S 04:53:33 87° W 04:58:08 10° N
ATLAS 5 CENTAUR R/B 4.3 04:52:54 10° SSE 04:55:33 18° ESE 04:58:22 10° ENE
DNEPR-1 R/B 3.9 04:53:15 28° NW 04:55:49 76° SW 05:01:28 10° SSE
Cosmos 1833 4.2 04:51:16 16° NNW 04:55:51 88° WSW 05:01:36 10° SSE
H-2A R/B 3.1 04:51:47 10° SE 04:55:51 46° ENE 05:00:03 10° N
Cosmos 1812 3.0 04:56:57 39° WNW 04:57:30 41° W 05:01:06 10° SSW
CBERS 1 LM4 rocket 4.3 04:53:46 10° N 04:58:33 64° WNW 05:03:28 10° SSW
ADEOS 3.6 04:53:38 10° NNE 04:58:53 82° ESE 05:04:07 10° SSW
Cosmos 1354 Rocket 4.3 04:58:32 10° SSW 05:03:46 71° ESE 05:09:04 10° NNE
Cosmos 1151 Rocket 3.3 05:01:35 19° NNW 05:04:21 44° W 05:08:30 10° SSW
USA 238 DEB 3.9 05:00:11 20° WSW 05:04:38 48° NW 05:11:20 10° NE
USA 238 3.9 05:00:14 19° WSW 05:04:44 48° NW 05:11:27 10° NE
Cosmos 1766 Rocket 3.5 05:02:31 10° SSW 05:06:47 56° WNW 05:11:04 10° N
CZ-2C R/B 3.3 05:02:04 10° NNE 05:06:54 67° ESE 05:11:54 10° S
Cosmos 2344 4.1 05:03:34 22° W 05:07:53 39° NNW 05:15:36 10° NE
Cosmos 2263 4.1 05:02:15 10° SSW 05:07:57 76° WNW 05:13:44 10° NNE
USA 215 3.4 05:01:55 10° SE 05:08:19 58° SW 05:13:03 19° WNW
Meteor PRIRODA 3.7 05:08:36 10° NNE 05:12:14 77° ESE 05:15:51 10° S
Meteor 1-31 Rocket 3.2 05:10:07 10° N 05:13:44 38° WNW 05:17:22 10° SW
Cosmos 2279 Rocket 4.1 05:08:56 10° NNW 05:14:55 53° W 05:20:53 10° SSW
Cosmos 2297 Rocket 4.1 05:11:36 10° N 05:16:06 23° NE 05:20:34 10° E
Cosmos 1328 Rocket 3.8 05:12:49 10° NNW 05:17:02 46° W 05:21:11 10° SSW
IRAS Rocket 4.2 05:11:49 10° S 05:17:18 71° WSW 05:22:49 10° NNW
BREEZE-M DEB (TANK) 4.0 05:06:43 10° SW 05:18:29 55° SSE 05:21:57 10° ENE
Cosmos 2369 Rocket 2.4 05:16:33 10° SW 05:21:54 45° NW 05:27:17 10° NNE
FALCON 9 DEB 3.7 05:21:07 24° WNW 05:22:37 39° NNW 05:25:51 10° NE
SMAP 4.0 05:18:04 10° NNE 05:22:39 52° E 05:27:11 10° S
Cosmos 1862 3.8 05:19:28 10° SW 05:23:08 36° WNW 05:26:50 10° N
COSMO-SKYMED 1 3.7 05:20:23 10° SSW 05:23:53 24° W 05:25:48 18° WNW
Nadezhda 4 Rocket 4.0 05:19:59 10° S 05:26:09 88° E 05:32:25 10° N
H-2A R/B 3.9 05:24:15 10° NNW 05:27:01 20° WNW 05:29:47 10° WSW
H-2A R/B 3.7 05:29:21 10° NNE 05:33:52 35° E 05:38:21 10° SSE
Meteor 2-15 Rocket 4.4 05:28:40 10° NNW 05:34:44 70° W 05:40:44 10° S
Cosmos 2228 Rocket 3.8 05:30:48 10° N 05:35:14 57° ENE 05:39:40 10° SSE
CZ-4B R/B 2.5 05:33:02 10° N 05:36:36 61° WNW 05:40:06 10° SSW
Lacrosse 4 Rocket 4.0 05:36:26 10° N 05:38:12 12° NNE 05:39:59 10° NE
CZ-4B R/B 1.7 05:36:20 10° SSE 05:39:38 67° ENE 05:42:55 10° N
Cosmos 1092 Rocket 4.4 05:34:14 10° S 05:40:25 69° E 05:46:42 10° NNE
Cosmos 1408 Rocket 3.7 05:38:00 10° SSW 05:42:11 50° WNW 05:46:24 10° N
CZ-4C R/B 4.5 05:42:51 10° SW 05:44:51 16° W 05:46:01 13° WNW
DMSP B5D2-2 4.4 05:40:10 10° S 05:45:08 44° W 05:50:08 10° NNW
Cosmos 1656 Rocket 4.0 05:40:31 10° SW 05:45:35 40° NW 05:50:44 10° NNE
Cosmos 1503 Rocket 4.3 05:40:47 10° SW 05:45:51 47° WNW 05:51:01 10° NNE
USA 32 4.1 05:41:30 10° N 05:46:47 88° W 05:52:02 10° S
Cosmos 1743 Rocket 3.5 05:45:05 10° SSW 05:49:28 79° W 05:53:52 10° N
CZ-2C R/B 4.0 05:45:39 10° SW 05:49:29 19° W 05:53:19 10° NW
AQUARIUS 4.3 05:46:10 10° NNE 05:50:42 85° ESE 05:55:11 10° SSW
Cosmos 2227 Rocket 3.8 05:46:41 10° N 05:51:35 29° NE 05:56:26 10° ESE
FAST Rocket 3.9 05:49:06 10° SSW 05:51:40 60° W 05:54:42 10° N
Cosmos 1943 Rocket 3.6 05:48:14 10° W 05:51:57 17° NW 05:55:40 10° N
PSLV R/B 4.1 05:51:58 10° NNE 05:55:53 73° ESE 05:59:52 10° S
PSLV R/B 3.9 05:52:59 10° SSE 05:57:02 89° ENE 06:01:09 10° NNW
Cosmos 1515 Rocket 4.3 05:53:22 10° NNW 05:57:16 32° W 06:01:07 10° SSW
Cosmos 1777 Rocket 4.0 05:52:16 10° SSW 05:57:28 76° WNW 06:02:44 10° NNE
SL-8 R/B 4.4 05:54:30 10° W 05:59:04 44° SSW 06:03:35 10° SE
FALCON 9 DEB 4.1 05:56:51 10° WNW 05:59:15 25° N 06:01:44 10° ENE
CORIOLIS 4.3 05:54:31 10° NNE 06:00:01 90° ENE 06:05:28 10° SSW
Meteor 1-27 Rocket 4.0 05:55:01 10° NNW 06:00:23 48° W 06:05:51 10° SSW
Cosmos 1602 3.7 05:58:05 10° S 06:01:54 88° WNW 06:05:44 10° N
NOAA 6 4.0 05:56:59 10° NNE 06:02:07 77° WNW 06:07:13 10° SSW
COSMOS 2487 2.3 06:01:24 10° NNW 06:04:47 83° WSW 06:08:07 10° SSE
FALCON 9 DEB 4.1 06:03:30 10° NW 06:05:56 25° N 06:08:23 10° ENE
SJ 16-02 1.3 06:02:40 10° SSW 06:07:00 62° WNW 06:11:22 10° NNE
FALCON 9 DEB 4.1 06:05:35 10° NW 06:08:02 25° N 06:10:30 10° ENE
CENTAUR R/B 3.8 06:04:23 10° WNW 06:09:56 27° NNW 06:16:20 10° NE
Alouette 2 Rocket 3.6 06:07:10 10° NNW 06:10:53 42° W 06:14:14 10° SSW
